Station History

Weather Underground - logo

Station Historical Data
 
Daily Summary for December 12, 2017 Units:  English    Metric   Both
« Previous Day
Next Day »
Daily Weekly Monthly Yearly Custom
  Current: High: Low: Average:
Temperature: 34.9 °F 40.1 °F 34.9 °F 38.5 °F
Dew Point: 32.0 °F 35.9 °F 31.7 °F 34.6 °F
Humidity: 89 % 89 % 84 % 86 %
Wind Speed: 0.0 mph 1.2 mph 0.0 mph 0.1 mph
Wind Gust: 0.0 mph 1.2 mph - -
Wind:Calm - - South
Pressure: 30.36 in 30.37 in 30.36 in -
Precipitation: 0.00 in      
Historical Graphs
 
 
Tabular Data for December 12, 2017
Time Temperature Dew Point Pressure Wind Wind Speed Wind Gust Humidity Rainfall Rate (Hourly)
00:02 39.1 °F 35.6 °F 30.37 in Calm     87 % 0.00 in
00:07 38.9 °F 35.4 °F 30.37 in Calm     87 % 0.00 in
00:12 39.0 °F 35.5 °F 30.37 in NNE 1.2 mph   87 % 0.00 in
00:17 39.3 °F 35.8 °F 30.37 in North 1.2 mph 1.2 mph 87 % 0.00 in
00:22 39.5 °F 35.7 °F 30.37 in Calm     86 % 0.00 in
00:27 39.6 °F 35.8 °F 30.36 in Calm     86 % 0.00 in
00:32 39.9 °F 35.8 °F 30.37 in Calm     85 % 0.00 in
00:37 40.0 °F 35.9 °F 30.37 in Calm     85 % 0.00 in
00:42 40.1 °F 35.7 °F 30.37 in Calm     84 % 0.00 in
00:47 40.0 °F 35.6 °F 30.37 in Calm     84 % 0.00 in
00:52 39.5 °F 35.4 °F 30.37 in Calm     85 % 0.00 in
00:57 39.5 °F 35.4 °F 30.37 in Calm     85 % 0.00 in
01:02 39.5 °F 35.4 °F 30.36 in Calm     85 % 0.00 in
01:07 39.5 °F 35.4 °F 30.37 in Calm     85 % 0.00 in
01:12 39.6 °F 35.5 °F 30.37 in Calm     85 % 0.00 in
01:17 39.5 °F 35.4 °F 30.37 in Calm     85 % 0.00 in
01:22 39.5 °F 35.1 °F 30.37 in Calm     84 % 0.00 in
01:27 39.4 °F 35.3 °F 30.36 in Calm     85 % 0.00 in
01:32 39.0 °F 34.6 °F 30.36 in Calm     84 % 0.00 in
01:37 38.2 °F 33.8 °F 30.36 in Calm     84 % 0.00 in
01:42 37.5 °F 33.4 °F 30.36 in Calm     85 % 0.00 in
01:47 36.7 °F 32.6 °F 30.36 in Calm     85 % 0.00 in
01:52 36.0 °F 32.2 °F 30.36 in Calm     86 % 0.00 in
01:57 35.6 °F 32.1 °F 30.36 in Calm     87 % 0.00 in
02:02 35.2 °F 31.7 °F 30.37 in Calm     87 % 0.00 in
02:07 35.0 °F 31.8 °F 30.36 in Calm     88 % 0.00 in
02:12 34.9 °F 32.0 °F 30.36 in Calm     89 % 0.00 in
Park Place, Exeter, Tulare County, California, USA
Compliments of Weather Underground - 1.25 mb